Woodinville, Washington, United States (98072)
Lat: 47.75N, Lon: 122.16W
Wx Zone: WAZ505
Local Info
Past Weather Observations for Saturday, September 24, 2016

NOTE: This archive is for the closest National Weather Service station to Woodinville. Information may differ from the station used for current weather conditions.

Click here for Long-term Archive

Time Weather Temperature Dewpoint Humidity Pressure Winds Precip Visibility
23:53
Overcast
57°F / 14°C 52°F / 11°C 82% 30.39 in
(1029 mb)
NNE 4.6 mph
(NNE 7 kph)
- 10SM
22:53
Overcast
57°F / 14°C 48°F / 9°C 72% 30.39 in
(1029 mb)
NNE 3.5 mph
(NNE 6 kph)
- 10SM
21:53
Overcast
61°F / 16°C 48°F / 9°C 63% 30.39 in
(1029 mb)
NE 4.6 mph
(NE 7 kph)
- 10SM
20:53
Overcast
61°F / 16°C 46°F / 8°C 59% 30.39 in
(1029 mb)
ENE 5.8 mph
(ENE 9 kph)
- 10SM
19:53
Overcast
61°F / 16°C 48°F / 9°C 63% 30.39 in
(1029 mb)
N 3.5 mph
(N 6 kph)
- 10SM
18:53
Overcast
61°F / 16°C 46°F / 8°C 59% 30.36 in
(1028 mb)
Calm - 10SM
17:53
Overcast
61°F / 16°C 46°F / 8°C 59% 30.36 in
(1028 mb)
Calm - 10SM
16:53
Overcast
61°F / 16°C 48°F / 9°C 63% 30.36 in
(1028 mb)
Calm - 10SM
15:53
Mostly Cloudy
61°F / 16°C 48°F / 9°C 63% 30.36 in
(1028 mb)
SSW 3.5 mph
(SSW 6 kph)
- 10SM
14:53
Clear
63°F / 17°C 48°F / 9°C 59% 30.33 in
(1027 mb)
W 5.8 mph
(W 9 kph)
- 10SM
13:53
Partly Cloudy
61°F / 16°C 48°F / 9°C 63% 30.36 in
(1028 mb)
SSW 3.5 mph
(SSW 6 kph)
- 10SM
12:53
Partly Cloudy
61°F / 16°C 50°F / 10°C 68% 30.39 in
(1029 mb)
Variable 5.8 mph
(Variable 9 kph)
- 10SM
11:53
Clear
61°F / 16°C 50°F / 10°C 68% 30.39 in
(1029 mb)
SW 3.5 mph
(SW 6 kph)
- 10SM
10:53
Partly Cloudy
57°F / 14°C 52°F / 11°C 82% 30.39 in
(1029 mb)
WNW 8.1 mph
(WNW 13 kph)
- 10SM
10:08
Mostly Cloudy
59°F / 15°C 48°F / 9°C 68% 30.39 in
(1029 mb)
Calm - 10SM
09:56
Partly Cloudy
59°F / 15°C 50°F / 10°C 72% 30.39 in
(1029 mb)
Variable 4.6 mph
(Variable 7 kph)
- 10SM
09:53
Mostly Cloudy
57°F / 14°C 48°F / 9°C 72% 30.39 in
(1029 mb)
Calm - 10SM
08:53
Mostly Cloudy
57°F / 14°C 50°F / 10°C 77% 30.39 in
(1029 mb)
SE 4.6 mph
(SE 7 kph)
- 10SM
08:48
Mostly Cloudy
55°F / 13°C 50°F / 10°C 82% 30.39 in
(1029 mb)
Calm - 10SM
08:00
Mostly Cloudy
55°F / 13°C 52°F / 11°C 88% 30.36 in
(1028 mb)
SSE 4.6 mph
(SSE 7 kph)
- 10SM
07:53
Overcast
54°F / 12°C 50°F / 10°C 88% 30.36 in
(1028 mb)
SSE 4.6 mph
(SSE 7 kph)
- 10SM
06:53
Overcast
52°F / 11°C 48°F / 9°C 88% 30.36 in
(1028 mb)
SW 3.5 mph
(SW 6 kph)
- 10SM
05:53
Partly Cloudy
48°F / 9°C 48°F / 9°C 100% 30.33 in
(1027 mb)
SW 4.6 mph
(SW 7 kph)
- 10SM
04:53
Partly Cloudy
50°F / 10°C 48°F / 9°C 94% 30.33 in
(1027 mb)
S 3.5 mph
(S 6 kph)
- 10SM
04:36
Partly Cloudy
52°F / 11°C 48°F / 9°C 88% 30.3 in
(1026 mb)
Calm - 10SM
03:53
Overcast
52°F / 11°C 48°F / 9°C 88% 30.3 in
(1026 mb)
Calm - 10SM
03:42
Overcast
52°F / 11°C 48°F / 9°C 88% 30.3 in
(1026 mb)
Calm - 10SM
02:53
Overcast
54°F / 12°C 48°F / 9°C 82% 30.27 in
(1025 mb)
Calm - 10SM
01:53
Mostly Cloudy
54°F / 12°C 48°F / 9°C 82% 30.27 in
(1025 mb)
Calm - 10SM
00:53
Mostly Cloudy
54°F / 12°C 48°F / 9°C 82% 30.24 in
(1024 mb)
W 5.8 mph
(W 9 kph)
- 10SM
Time Weather Temperature Dewpoint Humidity Pressure Winds Precip Visibility


Weather for websites

WeatherForYou.com, LLC is not responsible for any damages or problems caused by this service. Current weather conditions are obtained from the closest station including government and personal stations which may have varying degrees of accuracy. Weather forecasts are derived from the NOAA NDFD. Like all things, this site belongs to Jesus Christ... He just trusts us to maintain it. If you have any questions or comments email webmaster@weatherforyou.com

Copyright © 2016, WeatherForYou.com LLC. All rights reserved.